�N����,����,�~����,�C��,���x,�C��,����,���ϕ���,�ő�u�ԕ���,�ő厞����,���˗�,�I�_���x,�n�����x,�ő啗���N��,DTYPE
"16/10/22","00:10",0.0,12.8,86.4,1011.9,327.5,1.7,2.8,342.8,0.00,10.6,17.9,"00:06:04",1
"16/10/22","00:20",0.0,12.8,86.3,1012.1,325.3,1.7,3.6,336.4,0.00,10.6,17.8,"00:11:04",1
"16/10/22","00:30",0.0,12.7,86.4,1012.3,331.4,1.7,2.9,341.1,0.00,10.5,17.8,"00:28:18",1
"16/10/22","00:40",0.0,12.6,86.9,1012.3,331.2,1.6,2.8,356.0,0.00,10.5,17.8,"00:39:08",1
"16/10/22","00:50",0.0,12.6,87.2,1012.8,338.1,1.7,3.2,347.1,0.00,10.6,17.7,"00:45:50",1
"16/10/22","01:00",0.0,12.6,87.4,1012.6,333.1,1.8,3.1,337.8,0.00,10.6,17.6,"00:51:44",1
"16/10/22","01:10",0.0,12.4,87.3,1012.1,301.7,1.0,1.7,333.6,0.00,10.4,17.4,"01:00:08",1
"16/10/22","01:20",0.0,12.2,88.3,1012.1,308.1,1.3,2.4,337.0,0.00,10.4,17.4,"01:19:44",1
"16/10/22","01:30",0.0,12.3,88.5,1012.1,325.8,1.5,2.2,332.7,0.00,10.5,17.6,"01:22:26",1
"16/10/22","01:40",0.0,12.3,88.6,1012.3,320.1,1.6,2.2,321.8,0.00,10.5,17.5,"01:34:36",1
"16/10/22","01:50",0.0,12.2,88.9,1011.9,312.4,1.5,2.1,321.0,0.00,10.5,17.6,"01:42:36",1
"16/10/22","02:00",0.0,12.1,89.2,1011.9,313.0,1.3,2.1,312.0,0.00,10.4,17.3,"01:56:28",1
"16/10/22","02:10",0.0,12.1,89.5,1011.9,321.3,1.5,2.8,351.9,0.00,10.5,17.4,"02:09:30",1
"16/10/22","02:20",0.0,12.0,89.7,1012.1,318.5,1.5,3.1,343.6,0.00,10.4,17.2,"02:19:44",1
"16/10/22","02:30",0.0,11.9,89.9,1011.9,324.1,1.6,2.5,344.6,0.00,10.3,17.3,"02:20:56",1
"16/10/22","02:40",0.0,11.9,90.2,1011.6,308.5,1.5,2.1,311.1,0.00,10.4,17.0,"02:38:24",1
"16/10/22","02:50",0.0,11.8,90.5,1011.9,310.3,1.7,2.2,327.3,0.00,10.3,17.3,"02:42:20",1
"16/10/22","03:00",0.0,11.8,90.7,1011.6,316.1,1.6,2.1,327.6,0.00,10.4,17.3,"02:54:36",1
"16/10/22","03:10",0.0,11.7,90.6,1011.2,319.3,1.5,2.8,342.0,0.00,10.3,17.2,"03:07:32",1
"16/10/22","03:20",0.0,11.6,91.1,1011.6,295.6,1.0,1.4,335.2,0.00,10.2,17.0,"03:17:26",1
"16/10/22","03:30",0.0,11.6,91.5,1011.2,320.7,1.6,2.5,341.6,0.00,10.3,17.0,"03:29:18",1
"16/10/22","03:40",0.0,11.6,91.5,1011.2,316.8,1.5,2.2,351.2,0.00,10.3,17.0,"03:30:32",1
"16/10/22","03:50",0.0,11.7,91.4,1011.4,307.7,1.5,2.2,311.5,0.00,10.4,17.1,"03:46:16",1
"16/10/22","04:00",0.0,11.8,91.0,1011.6,289.9,1.1,2.5,9.0,0.00,10.4,17.0,"03:57:00",1
"16/10/22","04:10",0.0,11.8,90.9,1011.4,301.5,1.2,1.9,326.0,0.00,10.4,17.1,"04:00:40",1
"16/10/22","04:20",0.0,11.8,90.8,1011.4,310.2,1.3,2.2,323.4,0.00,10.4,16.8,"04:19:28",1
"16/10/22","04:30",0.0,11.7,90.9,1011.6,317.1,1.3,2.2,332.2,0.00,10.3,17.0,"04:21:20",1
"16/10/22","04:40",0.0,11.7,90.9,1011.6,320.5,1.5,2.8,340.3,0.00,10.3,16.9,"04:36:18",1
"16/10/22","04:50",0.0,11.7,91.0,1011.4,301.3,1.2,2.0,327.2,0.00,10.3,17.0,"04:40:48",1
"16/10/22","05:00",0.0,11.6,91.3,1011.4,280.9,1.0,1.1,280.0,0.00,10.3,16.8,"04:52:34",1
"16/10/22","05:10",0.0,11.5,91.5,1011.4,288.9,1.0,1.4,310.6,0.00,10.2,16.7,"05:06:16",1
"16/10/22","05:20",0.0,11.5,91.6,1011.4,290.7,1.0,1.7,304.6,0.00,10.2,16.9,"05:11:52",1
"16/10/22","05:30",0.0,11.5,91.8,1011.6,299.1,1.1,1.4,311.6,0.00,10.3,16.9,"05:27:04",1
"16/10/22","05:40",0.0,11.6,91.9,1011.4,304.6,1.3,2.0,338.1,0.00,10.4,16.9,"05:39:38",1
"16/10/22","05:50",0.0,11.6,91.7,1011.4,305.0,1.3,2.1,331.9,0.00,10.3,17.0,"05:45:56",1
"16/10/22","06:00",0.0,11.5,91.7,1011.2,317.1,1.5,2.8,344.4,0.00,10.2,16.8,"05:50:32",1
"16/10/22","06:10",0.0,11.7,91.9,1011.2,329.1,2.0,3.1,346.9,0.00,10.5,17.0,"06:06:26",1
"16/10/22","06:20",0.0,11.9,91.8,1011.2,311.1,1.6,2.5,329.3,0.00,10.7,17.0,"06:13:30",1
"16/10/22","06:30",0.0,12.0,91.5,1011.4,306.8,1.6,2.4,313.0,0.00,10.7,16.6,"06:24:48",1
"16/10/22","06:40",0.0,12.0,91.3,1011.4,309.1,1.3,2.2,332.0,0.00,10.7,16.7,"06:35:52",1
"16/10/22","06:50",0.0,12.1,91.0,1011.2,331.5,2.0,3.6,343.8,0.00,10.7,16.6,"06:43:46",1
"16/10/22","07:00",0.0,12.2,90.8,1011.4,327.6,1.7,3.1,345.5,0.00,10.8,16.8,"06:51:32",1
"16/10/22","07:10",0.0,12.5,90.7,1010.9,313.8,1.2,2.1,326.1,0.03,11.1,16.7,"07:02:32",1
"16/10/22","07:20",0.0,13.2,88.8,1011.2,326.0,1.5,2.9,348.7,0.05,11.4,16.7,"07:17:36",1
"16/10/22","07:30",0.0,13.5,87.1,1011.2,316.1,1.2,2.5,340.7,0.06,11.4,16.8,"07:20:48",1
"16/10/22","07:40",0.0,13.9,86.6,1011.2,318.9,1.5,2.7,318.9,0.06,11.7,16.8,"07:31:28",1
"16/10/22","07:50",0.0,14.1,86.2,1011.6,307.5,1.2,2.0,348.2,0.05,11.9,16.9,"07:40:08",1
"16/10/22","08:00",0.0,14.1,85.6,1011.2,301.8,1.1,2.1,324.0,0.05,11.8,17.0,"07:58:00",1
"16/10/22","08:10",0.0,14.2,85.3,1010.9,314.0,1.3,2.1,326.9,0.06,11.8,16.9,"08:00:08",1
"16/10/22","08:20",0.0,14.5,85.1,1011.4,311.4,1.2,2.0,317.7,0.06,12.1,17.2,"08:18:08",1
"16/10/22","08:30",0.0,14.8,84.9,1010.9,311.7,1.1,1.7,328.4,0.09,12.3,17.3,"08:20:08",1
"16/10/22","08:40",0.0,15.2,82.8,1011.4,301.0,1.0,1.4,311.1,0.11,12.3,17.3,"08:34:16",1
"16/10/22","08:50",0.0,15.6,82.8,1010.9,274.7,0.8,1.9,243.0,0.11,12.7,17.4,"08:46:56",1
"16/10/22","09:00",0.0,16.0,80.8,1010.9,309.9,0.7,1.2,307.5,0.10,12.7,17.4,"08:51:12",1
"16/10/22","09:10",0.0,16.1,79.6,1010.9,315.0,1.0,1.7,337.5,0.11,12.6,17.7,"09:05:36",1
"16/10/22","09:20",0.0,16.5,79.5,1011.2,293.4,0.7,2.1,246.2,0.15,13.0,17.7,"09:19:20",1
"16/10/22","09:30",0.0,16.3,81.0,1010.7,258.6,1.0,2.0,240.5,0.11,13.1,17.7,"09:20:56",1
"16/10/22","09:40",0.0,16.4,78.8,1010.9,255.8,0.7,1.3,235.5,0.10,12.8,17.9,"09:34:48",1
"16/10/22","09:50",0.0,17.1,76.7,1010.9,286.0,0.5,1.0,334.0,0.17,13.0,17.8,"09:44:32",1
"16/10/22","10:00",0.0,17.1,74.7,1010.7,250.7,0.3,0.8,247.3,0.10,12.6,18.1,"09:51:04",1
"16/10/22","10:10",0.0,17.2,74.2,1010.2,309.8,0.1,0.5,306.2,0.08,12.6,18.1,"10:04:48",1
"16/10/22","10:20",0.0,17.4,74.1,1009.7,282.9,0.3,0.6,296.8,0.09,12.8,18.3,"10:14:08",1
"16/10/22","10:30",0.0,17.6,72.7,1009.7,287.7,0.6,1.1,319.1,0.12,12.7,18.2,"10:27:44",1
"16/10/22","10:40",0.0,17.9,73.1,1009.5,289.6,0.6,1.1,303.0,0.16,13.1,18.4,"10:33:28",1
"16/10/22","10:50",0.0,17.9,72.9,1009.3,314.2,0.3,1.2,236.4,0.15,13.0,18.6,"10:40:08",1
"16/10/22","11:00",0.0,18.4,70.5,1009.3,313.2,0.8,1.9,343.9,0.20,13.0,18.2,"10:53:36",1
"16/10/22","11:10",0.0,18.4,72.7,1008.6,261.3,0.3,0.8,247.2,0.14,13.5,18.4,"11:00:48",1
"16/10/22","11:20",0.0,18.7,71.0,1008.6,266.0,0.5,0.9,252.0,0.17,13.4,18.7,"11:13:44",1
"16/10/22","11:30",0.0,18.8,68.2,1008.8,263.5,0.3,0.9,280.6,0.17,12.9,18.8,"11:22:24",1
"16/10/22","11:40",0.0,18.9,69.9,1008.6,197.9,0.2,0.9,166.5,0.16,13.3,18.9,"11:37:36",1
"16/10/22","11:50",0.0,19.2,69.0,1007.8,291.7,0.7,1.7,322.2,0.15,13.4,19.1,"11:48:00",1
"16/10/22","12:00",0.0,19.1,67.7,1007.6,292.7,0.8,1.7,326.0,0.14,13.0,19.1,"11:53:12",1
"16/10/22","12:10",0.0,19.4,67.8,1007.6,287.2,0.6,1.1,311.3,0.14,13.3,19.3,"12:03:52",1
"16/10/22","12:20",0.0,19.7,66.6,1007.4,272.2,0.5,1.0,250.4,0.18,13.4,19.3,"12:10:08",1
"16/10/22","12:30",0.0,19.9,65.7,1007.1,245.8,0.3,1.0,295.3,0.18,13.3,19.4,"12:22:56",1
"16/10/22","12:40",0.0,19.8,65.4,1006.9,309.4,0.7,1.9,338.3,0.13,13.2,19.5,"12:38:00",1
"16/10/22","12:50",0.0,19.7,66.3,1007.1,295.4,0.8,1.2,307.1,0.12,13.3,19.6,"12:44:40",1
"16/10/22","13:00",0.0,19.8,65.1,1006.7,296.8,0.7,1.4,321.1,0.12,13.1,19.6,"12:59:20",1
"16/10/22","13:10",0.0,19.8,66.2,1007.1,300.9,0.8,1.8,339.7,0.12,13.4,19.6,"13:08:48",1
"16/10/22","13:20",0.0,20.0,65.5,1006.9,343.6,0.8,2.2,341.7,0.14,13.4,19.5,"13:19:36",1
"16/10/22","13:30",0.0,20.4,66.1,1006.4,325.4,0.8,2.0,328.0,0.16,13.9,19.7,"13:21:20",1
"16/10/22","13:40",0.0,20.6,64.6,1006.4,317.6,0.8,1.8,349.4,0.17,13.7,19.8,"13:38:40",1
"16/10/22","13:50",0.0,20.6,65.0,1006.0,323.4,0.8,1.6,334.8,0.14,13.8,19.8,"13:45:04",1
"16/10/22","14:00",0.0,20.6,63.2,1006.0,320.3,0.7,1.4,338.0,0.10,13.4,19.8,"13:52:00",1
"16/10/22","14:10",0.0,20.7,62.4,1005.7,347.0,0.6,1.6,329.2,0.10,13.3,19.9,"14:00:48",1
"16/10/22","14:20",0.0,20.7,65.0,1006.0,279.5,0.3,1.0,328.1,0.13,13.9,20.2,"14:10:02",1
"16/10/22","14:30",0.0,21.0,61.5,1005.7,310.1,0.7,1.1,340.7,0.09,13.4,20.0,"14:22:24",1
"16/10/22","14:40",0.0,20.9,64.2,1005.7,284.8,0.6,1.2,340.4,0.08,13.9,20.0,"14:39:52",1
"16/10/22","14:50",0.0,20.8,63.6,1005.7,284.9,0.7,1.3,333.6,0.07,13.7,20.0,"14:40:08",1
"16/10/22","15:00",0.0,20.6,62.9,1005.7,291.2,0.6,1.4,241.1,0.05,13.3,20.1,"14:50:32",1
"16/10/22","15:10",0.0,20.5,65.1,1005.7,283.8,0.7,1.3,268.9,0.04,13.8,20.0,"15:07:12",1
"16/10/22","15:20",0.0,20.3,67.9,1005.7,293.0,0.8,1.2,251.6,0.02,14.2,20.1,"15:10:16",1
"16/10/22","15:30",0.0,20.1,68.6,1005.7,286.4,0.7,1.1,313.0,0.02,14.2,20.2,"15:20:16",1
"16/10/22","15:40",0.0,20.1,71.9,1005.5,282.4,0.8,1.1,301.8,0.03,14.9,20.0,"15:34:32",1
"16/10/22","15:50",0.0,19.9,74.5,1005.7,290.7,0.8,1.0,276.3,0.02,15.3,19.9,"15:43:20",1
"16/10/22","16:00",0.0,19.7,76.0,1006.0,303.1,0.8,1.1,313.7,0.00,15.4,20.1,"15:52:08",1
"16/10/22","16:10",0.0,19.5,77.5,1005.5,284.4,0.7,0.9,280.5,0.00,15.5,19.9,"16:02:00",1
"16/10/22","16:20",0.0,19.2,78.2,1005.7,287.4,0.8,1.2,308.4,0.00,15.4,20.0,"16:19:28",1
"16/10/22","16:30",0.0,19.0,79.3,1005.5,304.9,1.0,1.4,326.1,0.00,15.4,20.1,"16:29:12",1
"16/10/22","16:40",0.0,18.9,80.5,1005.5,298.7,0.7,1.2,315.7,0.00,15.5,19.8,"16:30:32",1
"16/10/22","16:50",0.0,18.8,81.4,1006.0,323.5,1.1,1.7,333.4,0.00,15.6,19.8,"16:44:00",1
"16/10/22","17:00",0.0,18.5,82.3,1005.7,289.9,0.8,1.3,336.8,0.00,15.5,19.7,"16:51:04",1
"16/10/22","17:10",0.0,18.3,83.1,1006.0,310.5,1.1,1.6,324.0,0.00,15.4,19.7,"17:06:56",1
"16/10/22","17:20",0.0,18.2,82.9,1005.7,315.3,1.0,2.1,338.4,0.00,15.3,19.6,"17:11:36",1
"16/10/22","17:30",0.0,18.0,83.2,1005.5,287.8,0.7,1.2,330.2,0.00,15.1,19.8,"17:20:48",1
"16/10/22","17:40",0.0,17.9,83.3,1005.7,293.2,0.7,1.1,304.1,0.00,15.1,19.7,"17:30:48",1
"16/10/22","17:50",0.0,17.8,83.9,1006.0,332.2,1.1,2.1,339.9,0.00,15.1,19.5,"17:49:20",1
"16/10/22","18:00",0.0,17.7,84.9,1006.2,313.1,1.0,1.6,348.9,0.00,15.2,19.3,"17:50:16",1
"16/10/22","18:10",0.0,17.6,84.9,1006.0,292.6,0.7,1.4,339.4,0.00,15.1,19.3,"18:09:12",1
"16/10/22","18:20",0.0,17.5,85.2,1006.0,301.4,0.7,1.2,317.8,0.00,15.0,19.5,"18:15:52",1
"16/10/22","18:30",0.0,17.4,85.3,1005.7,299.6,0.6,1.2,347.3,0.00,14.9,19.5,"18:20:32",1
"16/10/22","18:40",0.0,17.3,85.3,1006.0,283.4,0.7,0.9,273.0,0.00,14.9,19.4,"18:32:00",1
"16/10/22","18:50",0.0,17.2,85.5,1005.7,300.0,0.8,1.2,343.8,0.00,14.8,19.4,"18:49:04",1
"16/10/22","19:00",0.0,17.0,86.0,1005.5,325.9,0.8,1.4,318.7,0.00,14.7,19.5,"18:52:24",1
"16/10/22","19:10",0.0,16.8,86.6,1005.5,313.0,1.0,1.3,318.5,0.00,14.6,19.3,"19:01:44",1
"16/10/22","19:20",0.0,16.6,87.6,1005.7,303.8,0.8,1.2,319.5,0.00,14.6,19.2,"19:17:44",1
"16/10/22","19:30",0.0,16.5,88.5,1005.7,294.2,0.7,1.1,305.3,0.00,14.6,19.3,"19:21:52",1
"16/10/22","19:40",0.0,16.5,88.7,1006.2,284.4,0.8,1.6,305.3,0.00,14.7,19.2,"19:37:28",1
"16/10/22","19:50",0.0,16.7,88.4,1006.2,290.1,0.8,1.4,315.4,0.00,14.8,19.1,"19:40:02",1
"16/10/22","20:00",0.0,16.8,88.0,1006.2,297.6,1.2,1.8,301.1,0.00,14.8,18.9,"19:55:12",1
"16/10/22","20:10",0.0,16.9,87.2,1006.4,309.4,1.1,1.9,310.6,0.00,14.8,19.0,"20:05:04",1
"16/10/22","20:20",0.0,17.1,86.1,1006.4,316.3,1.5,1.9,329.2,0.00,14.8,19.2,"20:16:40",1
"16/10/22","20:30",0.0,17.3,85.4,1006.4,308.0,1.1,1.6,319.3,0.00,14.9,19.1,"20:20:32",1
"16/10/22","20:40",0.0,17.2,85.5,1006.2,306.5,0.7,1.4,333.5,0.00,14.8,19.0,"20:34:24",1
"16/10/22","20:50",0.0,17.1,85.7,1006.0,307.2,1.0,1.4,320.3,0.00,14.7,18.9,"20:46:00",1
"16/10/22","21:00",0.0,17.1,86.0,1005.7,298.7,0.7,1.2,314.4,0.00,14.8,18.8,"20:52:08",1
"16/10/22","21:10",0.0,17.1,86.3,1005.7,287.3,0.8,1.0,268.7,0.00,14.8,18.7,"21:00:40",1
"16/10/22","21:20",0.0,17.0,86.4,1005.7,280.1,0.8,1.3,279.2,0.00,14.8,18.9,"21:17:04",1
"16/10/22","21:30",0.0,17.1,86.3,1006.0,287.3,1.1,1.6,241.4,0.00,14.8,19.0,"21:23:52",1
"16/10/22","21:40",0.0,17.0,86.4,1005.7,281.4,1.0,1.9,319.6,0.00,14.8,19.1,"21:39:12",1
"16/10/22","21:50",0.0,17.1,86.3,1005.7,339.4,1.2,2.5,338.2,0.00,14.8,18.9,"21:48:00",1
"16/10/22","22:00",0.0,17.1,86.0,1005.2,323.8,1.2,2.5,347.8,0.00,14.8,18.8,"21:51:20",1
"16/10/22","22:10",0.0,17.1,85.9,1005.2,325.7,1.1,2.6,349.2,0.00,14.8,18.7,"22:04:40",1
"16/10/22","22:20",0.0,17.0,86.1,1005.5,299.8,0.6,1.3,339.1,0.00,14.7,18.9,"22:12:40",1
"16/10/22","22:30",0.0,16.9,86.5,1005.2,323.6,1.2,1.9,337.9,0.00,14.7,18.7,"22:27:52",1
"16/10/22","22:40",0.0,16.9,86.9,1005.0,325.2,1.3,2.2,341.4,0.00,14.7,19.0,"22:35:52",1
"16/10/22","22:50",0.0,17.0,86.7,1005.2,327.8,1.3,2.1,331.6,0.00,14.8,18.8,"22:45:12",1
"16/10/22","23:00",0.0,17.0,86.6,1005.5,334.2,1.5,2.8,340.2,0.00,14.8,18.7,"22:52:40",1
"16/10/22","23:10",0.0,16.9,86.9,1005.0,320.0,1.3,2.1,340.4,0.00,14.7,18.6,"23:05:04",1
"16/10/22","23:20",0.0,16.7,87.4,1005.2,319.2,1.5,2.2,304.7,0.00,14.6,18.7,"23:10:02",1
"16/10/22","23:30",0.0,16.8,87.5,1005.0,325.1,1.6,3.1,346.7,0.00,14.8,18.6,"23:25:52",1
"16/10/22","23:40",0.0,16.8,87.5,1005.2,325.7,1.6,2.1,325.6,0.00,14.8,18.8,"23:31:36",1
"16/10/22","23:50",0.0,16.7,87.5,1004.8,320.0,1.5,2.6,325.1,0.00,14.7,18.7,"23:49:52",1
"16/10/22","24:00",0.0,16.6,87.7,1005.2,328.2,1.5,2.1,334.0,0.00,14.6,18.6,"23:56:24",1
